星链-2575 (STARLINK-2575 )

导读 | 豆包AI

STARLINK-2575是美国SpaceX公司星链星座中的卫星,于2021年5月4日发射升空,属于Starlink Group 15批次。星链项目旨在构建全球卫星互联网星座,为全球偏远地区等提供高速低延迟互联网接入服务,该卫星承担着星座组网运营、拓展覆盖范围的任务,推动全球互联网覆盖建设。

Basic Information
目录编号:
48396
目录名称:
STARLINK-2575
国际标识:
2021-038AV
轨道中心:
EARTH
卫星名称:
星链-2575
卫星全名:
星链-2575 (STARLINK-2575 )
卫星状态:
在轨 (已飞行1822 天)
发射日期:
2021-05-04 UTC
国别 :
美国 (US)
星等 :
--
Orbit Information
数据来源 国际轨道数据 AOE轨道数据
星历时间 2026-04-30T13:04:32+0800
10小时前
查看轨道信息
2026-04-27T01:00:00+0800
3天前
查看轨道信息
半长轴 6848.88km 6848.866km
偏心率 0.0001175 0.0001532
轨道倾角 53.159° 53.157°
近地点辐角 95.837° 83.321°
升交点赤经 92.995° 109.305°
平近点角 264.277° 29.255°
近地点 469.938km 469.679km
远地点 471.548km 471.779km
周期 94.013分钟 94.013分钟
每日圈数 15.316993 15.317037
Detailed Information
固有亮度:
5
最大亮度:
2.5
卫星平台:
Starlink V1.0
覆盖范围:
全球
运营商:
太空探索技术公司
运营商所在国:
美国
制造商(研发单位):
太空探索技术公司
制造商所在国:
美国
使用方式:
暂无
Satellite Introduction
星链(Starlink)计划是由太空探索技术公司(SpaceX)提出的一个巨型低轨卫星互联网星座项目,计划在2019年至2024年间在太空搭建由约1.2万颗卫星组成的“星链”网络,其中1584颗将部署在地球上空550千米处的近地轨道,并从2020年开始工作。该卫星仍在工作。
2D Orbit Map
3D Orbit Map
Orbit Altitude Analysis Chart
Orbit Inclination Analysis Chart
Orbit Comprehensive Analysis Chart
View Comprehensive Chart